Location: Unspecified
(40.7945°N, 111.1337°W)
Time: 14:42:13
(UTC-06:00)

Vanguard 1 - Pass Details

Date: 22 June 2019
Orbit: 653 x 3830 km, 34.3° (Epoch: 22 July)

Event Time Altitude Azimuth Distance (km) Brightness Sun altitude
Exits shadow 23:57:43 12° 121° (ESE) 6,122 13.6 -22.5°
Drops below altitude 10° 00:00:40 10° 112° (ESE) 6,139 13.7 -22.7°
Sets 00:08:20 0° 91° (E) 6,536 14.1 -23.2°
